| time (UTC) | temp F | wind direction | speed MPH | gust MPH | rain 1hr in | rain 24hr in | rain mn in | humidity % | barometer mb |
| 20260905103036 | 53 | 226 | 0.0 | 8.0 | 0.00 | 0.31 | 0.31 | 74 | 1011.8 |
| 20260905101533 | 54 | 226 | 3.0 | 18.0 | 0.00 | 0.31 | 0.31 | 76 | 1011.6 |
| 20260905100032 | 54 | 285 | 3.0 | 13.0 | 0.01 | 0.31 | 0.31 | 77 | 1011.3 |
| 20260905094534 | 54 | 183 | 2.0 | 17.0 | 0.01 | 0.31 | 0.31 | 79 | 1011.1 |
| 20260905093031 | 54 | 235 | 2.0 | 17.0 | 0.01 | 0.31 | 0.31 | 81 | 1010.9 |
| 20260905091531 | 54 | 227 | 7.0 | 19.0 | 0.01 | 0.31 | 0.31 | 84 | 1010.8 |
| 20260905090029 | 53 | 234 | 2.0 | 10.0 | 0.00 | 0.31 | 0.31 | 88 | 1010.5 |
| 20260905083026 | 52 | 238 | 1.0 | 11.0 | 0.00 | 0.31 | 0.31 | 91 | 1010.1 |
| 20260905081524 | 52 | 182 | 3.0 | 15.0 | 0.00 | 0.31 | 0.31 | 91 | 1010.0 |
| 20260905080035 | 52 | 225 | 4.0 | 11.0 | 0.03 | 0.31 | 0.31 | 91 | 1010.1 |
| 20260905074522 | 52 | 294 | 3.0 | 0.0 | 0.00 | 0.00 | 0.31 | 90 | 1009.9 |
| 20260905073035 | 53 | 250 | 2.0 | 14.0 | 0.07 | 0.31 | 0.31 | 90 | 1010.0 |
| 20260905071520 | 53 | 247 | 7.0 | 18.0 | 0.08 | 0.31 | 0.31 | 90 | 1009.9 |
| 20260905070019 | 53 | 274 | 4.0 | 10.0 | 0.05 | 0.28 | 0.28 | 90 | 1009.6 |
| 20260905064518 | 53 | 237 | 4.0 | 12.0 | 0.02 | 0.24 | 0.24 | 90 | 1009.4 |
| 20260905063018 | 53 | 339 | 0.0 | 6.0 | 0.00 | 0.23 | 0.23 | 90 | 1009.5 |
| 20260905061520 | 53 | 251 | 0.0 | 8.0 | 0.00 | 0.23 | 0.23 | 90 | 1009.6 |
| 20260905060017 | 53 | 228 | 2.0 | 8.0 | 0.00 | 0.23 | 0.23 | 90 | 1009.4 |
| 20260905054516 | 53 | 235 | 2.0 | 12.0 | 0.00 | 0.23 | 0.23 | 90 | 1009.7 |
| 20260905053018 | 53 | 280 | 1.0 | 11.0 | 0.02 | 0.23 | 0.23 | 90 | 1009.8 |
| 20260905051510 | 53 | 296 | 1.0 | 6.0 | 0.06 | 0.23 | 0.23 | 90 | 1010.0 |
| 20260905050011 | 52 | 268 | 2.0 | 8.0 | 0.10 | 0.23 | 0.23 | 91 | 1010.8 |
| 20260905044514 | 52 | 279 | 0.0 | 10.0 | 0.13 | 0.23 | 0.23 | 91 | 1011.1 |
| 20260905043005 | 52 | 322 | 0.0 | 4.0 | 0.12 | 0.20 | 0.20 | 92 | 1011.9 |
| 20260905041509 | 53 | 282 | 4.0 | 12.0 | 0.08 | 0.16 | 0.16 | 90 | 1012.2 |
| 20260905040003 | 53 | 243 | 3.0 | 15.0 | 0.06 | 0.13 | 0.13 | 90 | 1012.3 |
| 20260905034506 | 54 | 293 | 5.0 | 14.0 | 0.03 | 0.10 | 0.10 | 88 | 1012.6 |
| 20260905033002 | 55 | 224 | 5.0 | 16.0 | 0.02 | 0.09 | 0.09 | 85 | 1012.4 |
| 20260905031502 | 56 | 244 | 5.0 | 16.0 | 0.02 | 0.08 | 0.08 | 84 | 1012.2 |
| 20260905030002 | 57 | 207 | 4.0 | 14.0 | 0.01 | 0.07 | 0.07 | 83 | 1012.1 |
| 20260905024600 | 58 | 218 | 5.0 | 17.0 | 0.01 | 0.07 | 0.07 | 81 | 1012.1 |
| 20260905023105 | 58 | 247 | 3.0 | 14.0 | 0.01 | 0.07 | 0.07 | 81 | 1011.9 |
| 20260905021601 | 58 | 294 | 2.0 | 8.0 | 0.00 | 0.06 | 0.06 | 82 | 1011.8 |
| 20260905020056 | 58 | 322 | 0.0 | 9.0 | 0.00 | 0.06 | 0.06 | 84 | 1012.0 |
| 20260905014552 | 57 | 327 | 1.0 | 12.0 | 0.00 | 0.06 | 0.06 | 84 | 1012.2 |
| 20260905013150 | 57 | 265 | 2.0 | 7.0 | 0.00 | 0.06 | 0.06 | 84 | 1012.7 |
| 20260905011549 | 57 | 256 | 1.0 | 7.0 | 0.02 | 0.06 | 0.06 | 86 | 1012.7 |
| 20260905010051 | 56 | 259 | 0.0 | 6.0 | 0.02 | 0.06 | 0.06 | 88 | 1012.8 |
| 20260905004544 | 56 | 304 | 1.0 | 5.0 | 0.03 | 0.06 | 0.06 | 90 | 1013.2 |
| 20260905003042 | 55 | 278 | 0.0 | 3.0 | 0.02 | 0.06 | 0.06 | 90 | 1013.5 |
| 20260905001540 | 55 | 288 | 0.0 | 0.0 | 0.02 | 0.05 | 0.05 | 90 | 1014.3 |
| 20260905000040 | 54 | 283 | 0.0 | 6.0 | 0.03 | 0.05 | 0.05 | 90 | 1014.3 |
| 20260904234545 | 54 | 268 | 3.0 | 8.0 | 0.02 | 0.03 | 0.03 | 89 | 1015.1 |
| 20260904233037 | 55 | 295 | 3.0 | 13.0 | 0.02 | 0.03 | 0.03 | 88 | 1014.4 |
| 20260904231535 | 54 | 295 | 0.0 | 8.0 | 0.02 | 0.02 | 0.02 | 86 | 1014.2 |
| 20260904230033 | 54 | 287 | 1.0 | 11.0 | 0.02 | 0.02 | 0.02 | 82 | 1014.9 |
| 20260904224539 | 54 | 306 | 2.0 | 6.0 | 0.02 | 0.02 | 0.02 | 83 | 1014.9 |
| 20260904223029 | 54 | 332 | 0.0 | 6.0 | 0.01 | 0.01 | 0.01 | 82 | 1015.1 |
| 20260904221529 | 56 | 295 | 3.0 | 11.0 | 0.00 | 0.00 | 0.00 | 77 | 1015.7 |
| 20260904220036 | 55 | 314 | 4.0 | 12.0 | 0.00 | 0.00 | 0.00 | 77 | 1015.8 |
| 20260904214532 | 53 | 252 | 0.0 | 7.0 | 0.00 | 0.00 | 0.00 | 79 | 1015.6 |
| 20260904213017 | 53 | 287 | 0.0 | 1.0 | 0.00 | 0.00 | 0.00 | 81 | 1015.7 |
| 20260904211519 | 52 | 320 | 0.0 | 2.0 | 0.00 | 0.00 | 0.00 | 81 | 1015.5 |
| 20260904210013 | 51 | 15 | 0.0 | 2.0 | 0.00 | 0.00 | 0.00 | 82 | 1015.4 |
| 20260904204508 | 50 | 355 | 0.0 | 0.0 | 0.00 | 0.00 | 0.00 | 85 | 1016.0 |
| 20260904203007 | 49 | 225 | 0.0 | 0.0 | 0.00 | 0.00 | 0.00 | 85 | 1015.9 |
| 20260904201505 | 50 | 351 | 0.0 | 0.0 | 0.00 | 0.00 | 0.00 | 86 | 1015.8 |
| 20260904200006 | 49 | 315 | 0.0 | 0.0 | 0.00 | 0.00 | 0.00 | 87 | 1015.8 |
| 20260904194502 | 49 | 192 | 0.0 | 0.0 | 0.00 | 0.00 | 0.00 | 87 | 1016.2 |
| 20260904193109 | 49 | 275 | 0.0 | 0.0 | 0.00 | 0.00 | 0.00 | 88 | 1016.5 |
| 20260904191700 | 49 | 242 | 0.0 | 0.0 | 0.00 | 0.00 | 0.00 | 88 | 1016.7 |
| 20260904190059 | 48 | 297 | 0.0 | 0.0 | 0.00 | 0.00 | 0.00 | 89 | 1016.5 |
| 20260904184559 | 49 | 267 | 0.0 | 0.0 | 0.00 | 0.00 | 0.00 | 88 | 1016.4 |
| 20260904183117 | 49 | 338 | 0.0 | 0.0 | 0.00 | 0.00 | 0.00 | 87 | 1016.4 |
| 20260904181556 | 49 | 300 | 0.0 | 0.0 | 0.00 | 0.00 | 0.00 | 87 | 1016.6 |
| 20260904180117 | 49 | 262 | 0.0 | 0.0 | 0.00 | 0.00 | 0.00 | 87 | 1016.5 |
| 20260904174606 | 49 | 240 | 0.0 | 0.0 | 0.00 | 0.00 | 0.00 | 87 | 1016.7 |
| 20260904173053 | 49 | 254 | 0.0 | 0.0 | 0.00 | 0.00 | 0.00 | 87 | 1016.9 |
| 20260904171554 | 49 | 313 | 0.0 | 0.0 | 0.00 | 0.00 | 0.00 | 87 | 1016.6 |
| 20260904170051 | 49 | 297 | 0.0 | 0.0 | 0.00 | 0.00 | 0.00 | 88 | 1016.9 |
| 20260904164544 | 49 | 290 | 0.0 | 0.0 | 0.00 | 0.00 | 0.00 | 89 | 1017.4 |
| 20260904163039 | 49 | 318 | 0.0 | 0.0 | 0.00 | 0.00 | 0.00 | 89 | 1017.7 |
| 20260904161538 | 48 | 296 | 0.0 | 0.0 | 0.00 | 0.00 | 0.00 | 90 | 1017.8 |
| 20260904160036 | 49 | 232 | 0.0 | 0.0 | 0.00 | 0.00 | 0.00 | 89 | 1018.2 |
| 20260904154532 | 49 | 244 | 0.0 | 0.0 | 0.00 | 0.00 | 0.00 | 89 | 1018.4 |
| 20260904153028 | 49 | 254 | 0.0 | 0.0 | 0.00 | 0.00 | 0.00 | 89 | 1018.2 |
| 20260904151523 | 49 | 296 | 0.0 | 0.0 | 0.00 | 0.00 | 0.00 | 89 | 1018.4 |
| 20260904150030 | 49 | 281 | 0.0 | 0.0 | 0.00 | 0.00 | 0.00 | 90 | 1018.6 |
| 20260904144518 | 48 | 288 | 0.0 | 0.0 | 0.00 | 0.00 | 0.00 | 90 | 1018.6 |
| 20260904143018 | 48 | 288 | 0.0 | 0.0 | 0.00 | 0.00 | 0.00 | 90 | 1018.5 |
| 20260904141526 | 48 | 275 | 0.0 | 0.0 | 0.00 | 0.00 | 0.00 | 89 | 1018.7 |
| 20260904140030 | 49 | 255 | 0.0 | 0.0 | 0.00 | 0.00 | 0.00 | 89 | 1018.7 |
| 20260904134514 | 49 | 281 | 0.0 | 0.0 | 0.00 | 0.00 | 0.00 | 89 | 1018.6 |
| 20260904133013 | 49 | 350 | 0.0 | 0.0 | 0.00 | 0.00 | 0.00 | 88 | 1018.6 |
| 20260904131509 | 49 | 326 | 0.0 | 0.0 | 0.00 | 0.00 | 0.00 | 88 | 1018.8 |
| 20260904130009 | 50 | 335 | 0.0 | 0.0 | 0.00 | 0.00 | 0.00 | 88 | 1019.1 |
| 20260904124507 | 49 | 251 | 0.0 | 0.0 | 0.00 | 0.00 | 0.00 | 89 | 1019.3 |
| 20260904123007 | 49 | 248 | 0.0 | 0.0 | 0.00 | 0.00 | 0.00 | 89 | 1019.8 |
| 20260904121507 | 49 | 328 | 0.0 | 0.0 | 0.00 | 0.00 | 0.00 | 89 | 1019.9 |
| 20260904120111 | 49 | 306 | 0.0 | 0.0 | 0.00 | 0.00 | 0.00 | 89 | 1020.0 |
| 20260904114511 | 50 | 276 | 0.0 | 0.0 | 0.00 | 0.00 | 0.00 | 88 | 1020.0 |
| 20260904113009 | 50 | 276 | 0.0 | 0.0 | 0.00 | 0.00 | 0.00 | 88 | 1020.2 |
| 20260904111503 | 51 | 338 | 0.0 | 0.0 | 0.00 | 0.00 | 0.00 | 87 | 1020.5 |
| 20260904110003 | 51 | 247 | 0.0 | 0.0 | 0.00 | 0.00 | 0.00 | 87 | 1020.5 |
| 20260904104503 | 51 | 266 | 0.0 | 0.0 | 0.00 | 0.00 | 0.00 | 86 | 1020.5 |